Date String (YYYY-MM-DD hh:mm:ss) UTC,Instrument flags,absolute air pressure of the measurement (hPa),sample flow rate (lpm),inlet stack bypass flow (lpm),air temperature of the measurement (°C),ambient temperature measured by the external sensor (°C),aerosol sample conditioner tube jacket temperature (°C),OPC LED temperature (°C),internal box temperature (°C),relative humidity of the measurement (%),span deviation,mass concentration of particles derived from Lorenz-Mie calculation of OPC scattering (μg/m³),mass concentration of particles derived from Lorenz-Mie calculation of OPC scattering (μg/m³),mass concentration of particles derived from Lorenz-Mie calculation of OPC scattering (μg/m³)
DateTimeUTC,F1_M11,P_M11,Q1_M11,Q2_M11,T1_M11,T2_M11,T3_M11,T4_M11,T5_M11,U1_M11,ZSPAN_M11,X0_M11,X2_M11,X1_M11
2024-02-07 07:00:00,SystemResetWarning,0816.6,5.00,000.00,021.7,021.0,000.0,030.2,023.4,16.9,0000.0,0008.79,0004.35,0004.03
2024-02-07 07:01:00,SystemResetWarning,0816.6,4.99,000.00,021.7,021.0,000.0,030.2,023.4,16.7,0000.0,0008.78,0004.35,0004.04
2024-02-07 07:02:00,SystemResetWarning,0816.6,5.00,000.00,021.7,021.0,000.0,030.1,023.4,16.7,0000.0,0008.79,0004.37,0004.05
2024-02-07 07:03:00,SystemResetWarning,0816.6,5.00,000.00,021.7,021.0,000.0,030.1,023.4,16.7,0000.0,0008.87,0004.39,0004.06
2024-02-07 07:04:00,SystemResetWarning,0816.7,5.00,000.00,021.7,021.0,000.0,030.1,023.4,16.7,0000.0,0008.88,0004.39,0004.06
2024-02-07 07:05:00,SystemResetWarning,0816.7,5.00,000.00,021.7,020.9,000.0,030.1,023.4,16.7,0000.0,0008.18,0004.31,0004.00
2024-02-07 07:06:00,SystemResetWarning,0816.8,5.00,000.00,021.6,020.9,000.0,030.1,023.4,16.8,0000.0,0007.85,0004.23,0003.92
2024-02-07 07:07:00,SystemResetWarning,0816.7,5.00,000.00,021.6,020.9,000.0,030.1,023.4,16.8,0000.0,0007.48,0004.14,0003.85
2024-02-07 07:08:00,SystemResetWarning,0816.7,5.00,000.00,021.6,020.9,000.0,030.1,023.4,16.8,0000.0,0007.33,0004.05,0003.78
2024-02-07 07:09:00,SystemResetWarning,0816.7,5.00,000.00,021.6,020.9,000.0,030.1,023.4,16.8,0000.0,0007.59,0004.00,0003.73
2024-02-07 07:10:00,SystemResetWarning,0816.7,5.00,000.00,021.6,020.9,000.0,030.1,023.4,16.8,0000.0,0007.49,0003.94,0003.67
2024-02-07 07:11:00,SystemResetWarning,0816.7,5.00,000.00,021.6,020.9,000.0,030.1,023.4,16.8,0000.0,0007.40,0003.87,0003.61
2024-02-07 07:12:00,SystemResetWarning,0816.6,4.99,000.00,021.6,020.9,000.0,030.1,023.4,16.8,0000.0,0007.30,0003.82,0003.56
2024-02-07 07:13:00,SystemResetWarning,0816.7,4.99,000.00,021.6,020.9,000.0,030.1,023.4,16.8,0000.0,0007.11,0003.78,0003.53
2024-02-07 07:14:00,SystemResetWarning,0816.6,5.00,000.00,021.6,020.9,000.0,030.1,023.3,16.8,0000.0,0007.38,0003.75,0003.49
2024-02-07 07:15:00,SystemResetWarning,0816.5,5.00,000.00,021.6,020.9,000.0,030.1,023.3,16.8,0000.0,0007.30,0003.68,0003.45
2024-02-07 07:16:00,SystemResetWarning,0816.5,5.00,000.00,021.6,020.9,000.0,030.0,023.3,16.9,0000.0,0006.92,0003.68,0003.45
2024-02-07 07:17:00,SystemResetWarning,0816.5,5.00,000.00,021.6,020.9,000.0,030.0,023.3,16.9,0000.0,0006.94,0003.72,0003.50
2024-02-07 07:18:00,SystemResetWarning,0816.5,5.00,000.00,021.6,020.9,000.0,030.0,023.3,16.9,0000.0,0006.44,0003.73,0003.53
2024-02-07 07:19:00,SystemResetWarning,0816.5,5.01,000.00,021.6,020.8,000.0,030.0,023.3,16.9,0000.0,0007.18,0003.77,0003.56
2024-02-07 07:20:00,SystemResetWarning,0816.5,5.00,000.00,021.5,020.8,000.0,030.0,023.3,17.0,0000.0,0007.15,0003.81,0003.58
2024-02-07 07:21:00,SystemResetWarning,0816.5,5.00,000.00,021.5,020.8,000.0,030.0,023.3,16.9,0000.0,0007.20,0003.85,0003.59
2024-02-07 07:22:00,SystemResetWarning,0816.3,5.00,000.00,021.5,020.8,000.0,030.0,023.2,16.9,0000.0,0007.60,0003.90,0003.61
2024-02-07 07:23:00,SystemResetWarning,0816.3,5.00,000.00,021.5,020.8,000.0,030.0,023.2,17.0,0000.0,0007.91,0003.91,0003.62
2024-02-07 07:24:00,SystemResetWarning,0816.4,5.00,000.00,021.5,020.7,000.0,029.9,023.2,17.0,0000.0,0007.91,0003.92,0003.63
2024-02-07 07:25:00,SystemResetWarning,0816.4,5.00,000.00,021.5,020.7,000.0,029.9,023.2,17.0,0000.0,0007.67,0003.89,0003.63
2024-02-07 07:26:00,SystemResetWarning,0816.4,4.99,000.00,021.5,020.7,000.0,029.9,023.2,17.0,0000.0,0007.64,0003.90,0003.62
2024-02-07 07:27:00,SystemResetWarning,0816.4,4.99,000.00,021.5,020.7,000.0,029.9,023.2,17.0,0000.0,0007.59,0003.91,0003.63
2024-02-07 07:28:00,SystemResetWarning,0816.5,5.00,000.00,021.4,020.7,000.0,029.9,023.2,17.0,0000.0,0007.51,0003.90,0003.63
2024-02-07 07:29:00,SystemResetWarning,0816.5,5.01,000.00,021.4,020.7,000.0,029.9,023.2,17.0,0000.0,0008.01,0003.93,0003.64
2024-02-07 07:30:00,SystemResetWarning,0816.4,5.01,000.00,021.4,020.7,000.0,029.9,023.1,16.9,0000.0,0008.16,0003.94,0003.65
2024-02-07 07:31:00,SystemResetWarning,0816.4,4.99,000.00,021.4,020.6,000.0,029.9,023.1,16.9,0000.0,0007.86,0003.93,0003.65
2024-02-07 07:32:00,SystemResetWarning,0816.3,4.99,000.00,021.4,020.6,000.0,029.9,023.1,17.0,0000.0,0007.78,0003.90,0003.63
2024-02-07 07:33:00,SystemResetWarning,0816.3,5.00,000.00,021.4,020.6,000.0,029.8,023.1,17.0,0000.0,0007.63,0003.89,0003.60
2024-02-07 07:34:00,SystemResetWarning,0816.4,5.00,000.00,021.4,020.6,000.0,029.8,023.1,17.0,0000.0,0007.53,0003.83,0003.53
2024-02-07 07:35:00,SystemResetWarning,0816.5,5.00,000.00,021.4,020.6,000.0,029.8,023.1,17.0,0000.0,0007.91,0003.79,0003.50
2024-02-07 07:36:00,SystemResetWarning,0816.6,5.00,000.00,021.4,020.6,000.0,029.8,023.1,17.1,0000.0,0007.91,0003.79,0003.50
2024-02-07 07:37:00,SystemResetWarning,0816.6,5.01,000.00,021.3,020.6,000.0,029.8,023.1,17.1,0000.0,0007.85,0003.79,0003.52
2024-02-07 07:38:00,SystemResetWarning,0816.5,5.01,000.00,021.3,020.6,000.0,029.8,023.1,17.2,0000.0,0007.91,0003.81,0003.54
2024-02-07 07:39:00,SystemResetWarning,0816.5,5.00,000.00,021.3,020.6,000.0,029.8,023.1,17.3,0000.0,0007.94,0003.81,0003.54
2024-02-07 07:40:00,SystemResetWarning,0816.4,5.00,000.00,021.3,020.6,000.0,029.8,023.1,17.3,0000.0,0007.75,0003.84,0003.55
2024-02-07 07:41:00,SystemResetWarning,0816.4,4.99,000.00,021.3,020.6,000.0,029.8,023.1,17.4,0000.0,0007.35,0003.86,0003.58
2024-02-07 07:42:00,SystemResetWarning,0816.4,4.99,000.00,021.3,020.6,000.0,029.8,023.1,17.3,0000.0,0007.53,0003.90,0003.61
2024-02-07 07:43:00,SystemResetWarning,0816.4,4.99,000.00,021.3,020.6,000.0,029.8,023.0,17.3,0000.0,0007.67,0003.98,0003.66
2024-02-07 07:44:00,SystemResetWarning,0816.4,5.01,000.00,021.3,020.6,000.0,029.8,023.0,17.3,0000.0,0007.90,0004.04,0003.74
2024-02-07 07:45:00,SystemResetWarning,0816.3,5.01,000.00,021.3,020.6,000.0,029.8,023.0,17.4,0000.0,0008.18,0004.14,0003.83
2024-02-07 07:46:00,SystemResetWarning,0816.2,4.99,000.00,021.3,020.6,000.0,029.8,023.1,17.4,0000.0,0008.26,0004.24,0003.91
2024-02-07 07:47:00,SystemResetWarning,0816.2,4.99,000.00,021.3,020.6,000.0,029.8,023.0,17.4,0000.0,0008.49,0004.29,0003.95
2024-02-07 07:48:00,SystemResetWarning,0816.2,5.00,000.00,021.3,020.6,000.0,029.8,023.0,17.3,0000.0,0008.79,0004.35,0003.99
2024-02-07 07:49:00,SystemResetWarning,0816.2,5.01,000.00,021.3,020.6,000.0,029.7,023.0,17.3,0000.0,0009.14,0004.39,0004.03
2024-02-07 07:50:00,SystemResetWarning,0816.1,5.01,000.00,021.3,020.6,000.0,029.7,023.0,17.3,0000.0,0009.57,0004.44,0004.07
2024-02-07 07:51:00,SystemResetWarning,0816.1,5.01,000.00,021.3,020.6,000.0,029.7,023.0,17.2,0000.0,0009.46,0004.45,0004.10
2024-02-07 07:52:00,SystemResetWarning,0816.1,5.00,000.00,021.3,020.6,000.0,029.7,023.0,17.2,0000.0,0009.28,0004.43,0004.09
2024-02-07 07:53:00,SystemResetWarning,0816.2,5.00,000.00,021.3,020.6,000.0,029.7,023.0,17.1,0000.0,0009.61,0004.41,0004.08
2024-02-07 07:54:00,SystemResetWarning,0816.2,4.98,000.00,021.2,020.5,000.0,029.7,023.0,17.1,0000.0,0009.68,0004.35,0004.05
2024-02-07 07:55:00,SystemResetWarning,0816.2,5.00,000.00,021.2,020.5,000.0,029.7,023.0,17.1,0000.0,0009.42,0004.30,0004.02
2024-02-07 07:56:00,SystemResetWarning,0816.2,5.01,000.00,021.2,020.5,000.0,029.7,023.0,17.1,0000.0,0008.94,0004.23,0003.96
2024-02-07 07:57:00,SystemResetWarning,0816.1,5.00,000.00,021.2,020.5,000.0,029.7,022.9,17.1,0000.0,0008.39,0004.15,0003.90
2024-02-07 07:58:00,SystemResetWarning,0816.1,5.00,000.00,021.2,020.5,000.0,029.7,022.9,17.2,0000.0,0008.20,0004.12,0003.87
2024-02-07 07:59:00,SystemResetWarning,0816.1,4.99,000.00,021.2,020.5,000.0,029.7,022.9,17.2,0000.0,0007.86,0004.06,0003.83
